DW8425 Weather Reports


Display with metric or nautical units.
time (UTC)temp
F
wind
direction
speed
MPH
gust
MPH
rain 1hr
in
rain 24hr
in
rain mn
in
humidity
%
barometer
mb
20260902224532 61 178 6.0 17.0 0.00 0.11 0.07 29 1007.1
20260902223039 61 151 12.0 18.0 0.00 0.11 0.07 28 1007.1
20260902221532 60 143 7.0 17.0 0.00 0.11 0.07 30 1007.0
20260902220035 61 168 8.0 20.0 0.00 0.11 0.07 30 1006.9
20260902214531 61 138 9.0 20.0 0.00 0.11 0.07 31 1006.8
20260902213029 62 145 9.0 16.0 0.00 0.11 0.07 30 1006.8
20260902211530 62 148 7.0 16.0 0.00 0.11 0.07 32 1006.7
20260902210027 61 140 8.0 15.0 0.00 0.11 0.07 33 1006.6
20260902204527 61 169 3.0 14.0 0.00 0.11 0.07 36 1006.5
20260902203026 61 215 1.0 16.0 0.00 0.11 0.07 38 1006.3
20260902201526 61 165 2.0 18.0 0.00 0.11 0.07 37 1006.0
20260902200027 61 152 10.0 19.0 0.00 0.11 0.07 34 1005.8
20260902194537 61 130 7.0 15.0 0.00 0.11 0.07 34 1005.7
20260902193022 61 173 4.0 14.0 0.00 0.11 0.07 35 1005.8
20260902191517 58 292 0.0 4.0 0.00 0.11 0.07 46 1005.8
20260902190016 57 280 0.0 3.0 0.00 0.11 0.07 52 1005.8
20260902184519 57 200 1.0 3.0 0.00 0.11 0.07 50 1006.0
20260902183012 56 185 1.0 4.0 0.00 0.11 0.07 58 1006.1
20260902181509 55 150 3.0 7.0 0.00 0.11 0.07 60 1006.3
20260902180007 54 169 2.0 8.0 0.00 0.11 0.07 63 1006.4
20260902174503 53 134 1.0 7.0 0.00 0.11 0.07 68 1006.4
20260902173100 52 130 0.0 3.0 0.00 0.11 0.07 75 1006.4
20260902171557 50 153 2.0 4.0 0.00 0.11 0.07 77 1006.8
20260902170051 48 360 0.0 6.0 0.00 0.11 0.07 91 1006.7
20260902164550 45 312 0.0 2.0 0.00 0.11 0.07 98 1006.6
20260902163047 43 299 0.0 0.0 0.02 0.11 0.07 97 1007.0
20260902161545 42 303 0.0 1.0 0.06 0.11 0.07 97 1006.9
20260902160048 42 323 1.0 4.0 0.06 0.11 0.07 97 1006.2
20260902154541 42 360 0.0 4.0 0.07 0.11 0.07 97 1006.1
20260902153045 42 340 1.0 5.0 0.05 0.09 0.05 97 1005.9
20260902151547 42 258 1.0 4.0 0.01 0.05 0.01 98 1005.7
20260902150038 41 360 0.0 3.0 0.00 0.04 0.00 97 1005.0
20260902144537 41 360 0.0 5.0 0.00 0.04 0.00 97 1005.5
20260902143036 40 360 0.0 1.0 0.00 0.04 0.00 97 1003.4
20260902141539 39 360 0.0 2.0 0.00 0.04 0.00 97 1003.9
20260902140034 39 178 0.0 0.0 0.00 0.04 0.00 97 1004.0
20260902134539 39 175 0.0 1.0 0.00 0.04 0.00 97 1003.7
20260902133034 38 179 0.0 2.0 0.00 0.04 0.00 97 1003.5
20260902131538 38 177 0.0 1.0 0.00 0.04 0.00 97 1003.4
20260902130033 38 182 0.0 0.0 0.00 0.04 0.00 96 1003.4
20260902124533 38 180 0.0 1.0 0.00 0.04 0.00 96 1003.3
20260902123032 38 179 0.0 0.0 0.00 0.04 0.00 96 1003.2
20260902121531 38 180 0.0 1.0 0.00 0.04 0.00 96 1003.4
20260902120030 38 360 0.0 1.0 0.00 0.04 0.00 96 1003.4
20260902114538 38 360 0.0 2.0 0.00 0.04 0.00 96 1003.3
20260902113028 38 185 0.0 1.0 0.00 0.04 0.00 96 1003.6
20260902111528 38 360 0.0 2.0 0.00 0.04 0.00 96 1003.5
20260902110032 38 360 0.0 2.0 0.00 0.04 0.00 96 1003.7
20260902104543 37 360 0.0 3.0 0.00 0.04 0.00 95 1003.8
20260902103021 37 360 0.0 1.0 0.00 0.04 0.00 94 1003.7
20260902101520 38 159 1.0 2.0 0.00 0.04 0.00 95 1003.8
20260902100018 38 153 0.0 1.0 0.00 0.04 0.00 95 1003.9
20260902094517 38 150 0.0 1.0 0.00 0.04 0.00 95 1004.1
20260902093016 38 155 0.0 0.0 0.00 0.04 0.00 94 1004.4
20260902091516 38 159 0.0 4.0 0.00 0.04 0.00 93 1004.4
20260902090010 39 61 0.0 1.0 0.00 0.04 0.00 95 1004.5
20260902084508 39 63 0.0 0.0 0.00 0.04 0.00 90 1004.7
20260902083006 40 30 0.0 0.0 0.00 0.04 0.00 92 1004.7
20260902081504 41 29 0.0 0.0 0.00 0.04 0.00 92 1004.7
20260902080108 42 36 0.0 0.0 0.00 0.04 0.00 91 1004.5
20260902074600 42 47 0.0 1.0 0.00 0.04 0.00 92 1004.6
20260902073058 42 42 0.0 1.0 0.00 0.04 0.00 92 1004.7
20260902071608 43 64 0.0 1.0 0.00 0.04 0.00 91 1004.6
20260902070054 43 39 0.0 0.0 0.00 0.04 0.00 92 1004.6
20260902064558 44 36 0.0 1.0 0.00 0.04 0.00 91 1004.7
20260902063112 44 38 0.0 0.0 0.00 0.04 0.00 90 1004.7
20260902061553 45 38 0.0 1.0 0.00 0.04 0.00 89 1004.8
20260902060109 45 40 0.0 0.0 0.00 0.04 0.00 90 1004.7
20260902054547 46 39 0.0 1.0 0.00 0.04 0.04 89 1004.8
20260902053046 46 40 0.0 1.0 0.00 0.04 0.04 89 1004.7
20260902051548 46 360 0.0 1.0 0.00 0.04 0.04 89 1004.9
20260902050044 47 36 0.0 1.0 0.00 0.04 0.04 88 1005.0
20260902044546 47 49 0.0 1.0 0.00 0.04 0.04 88 1004.8
20260902043047 48 37 0.0 1.0 0.00 0.04 0.04 88 1004.6
20260902041544 48 37 0.0 3.0 0.00 0.04 0.04 87 1004.5
20260902040043 49 88 0.0 2.0 0.00 0.04 0.04 87 1004.4
20260902034542 49 90 0.0 2.0 0.00 0.04 0.04 87 1004.7
20260902033041 50 360 0.0 1.0 0.00 0.04 0.04 86 1004.9
20260902031545 51 43 0.0 1.0 0.00 0.04 0.04 84 1004.8
20260902030040 52 86 0.0 1.0 0.00 0.04 0.04 81 1004.5
20260902024540 52 107 1.0 3.0 0.01 0.04 0.04 80 1003.9
20260902023040 51 42 0.0 3.0 0.04 0.04 0.04 84 1003.9
20260902021544 51 40 0.0 3.0 0.04 0.04 0.04 84 1004.4
20260902020040 52 96 2.0 3.0 0.04 0.04 0.04 83 1004.0
20260902014546 53 259 2.0 6.0 0.03 0.03 0.03 78 1004.0
20260902013032 61 252 6.0 32.0 0.00 0.00 0.00 54 1004.7
20260902011531 67 215 0.0 4.0 0.00 0.00 0.00 37 1001.4
20260902010030 67 192 5.0 14.0 0.00 0.00 0.00 37 1001.4
20260902004531 68 140 3.0 13.0 0.00 0.00 0.00 38 1001.1
20260902003031 69 159 2.0 11.0 0.00 0.00 0.00 38 1001.0
20260902001529 71 136 6.0 18.0 0.00 0.00 0.00 37 1001.0
20260902000037 71 162 6.0 15.0 0.00 0.00 0.00 37 1001.3
20260901234545 71 162 4.0 15.0 0.00 0.00 0.00 37 1001.3
20260901233024 70 164 5.0 15.0 0.00 0.00 0.00 38 1001.7
20260901231523 69 141 7.0 15.0 0.00 0.00 0.00 39 1002.1
20260901230022 68 136 6.0 13.0 0.00 0.00 0.00 40 1002.3